When you browse on this site, cookies collect data to enhance your experience and personalize the content and advertising you see.
Visit our Privacy Policy to learn more. By continuing to use the site, you agree to this use of cookies and data.
  • In Latvia
  • List of Countries
  • For 7 days
  • Water Temperature
  • Satellite Maps
  • Weather Map
  • Weather Widgets
  • user-avatar
    Login

    Hourly Weather Zhdanov

    Today, 20 June, Thursday

    Time Temperature Precipitation Wind Pressure Humidity
    00:00 +19°C° 0 mm 3 mps 757 mmHg 83%
    01:00 +18°C° 0 mm 3 mps 757 mmHg 85%
    02:00 +18°C° 0 mm 3 mps 757 mmHg 87%
    03:00 +18°C° 0 mm 3 mps 757 mmHg 89%
    04:00 +18°C° 0 mm 3 mps 758 mmHg 85%
    05:00 +19°C° 0 mm 3 mps 758 mmHg 82%
    06:00 +20°C° 0 mm 3 mps 758 mmHg 79%
    07:00 +21°C° 0 mm 3 mps 758 mmHg 73%
    08:00 +23°C° 0 mm 4 mps 758 mmHg 68%
    09:00 +25°C° 0 mm 4 mps 758 mmHg 62%
    10:00 +26°C° 0 mm 4 mps 758 mmHg 57%
    11:00 +27°C° 0 mm 4 mps 759 mmHg 52%
    12:00 +28°C° 0 mm 4 mps 759 mmHg 48%
    13:00 +28°C° 0 mm 4 mps 759 mmHg 47%
    14:00 +29°C° 0 mm 3 mps 758 mmHg 45%
    15:00 +29°C° 0 mm 3 mps 758 mmHg 44%
    16:00 +29°C° 0 mm 3 mps 758 mmHg 48%
    17:00 +28°C° 0 mm 3 mps 758 mmHg 52%
    18:00 +28°C° 0 mm 3 mps 758 mmHg 56%
    19:00 +26°C° 0 mm 3 mps 759 mmHg 59%
    20:00 +24°C° 0 mm 2 mps 759 mmHg 63%
    21:00 +23°C° 0 mm 2 mps 759 mmHg 66%
    22:00 +21°C° 0 mm 2 mps 759 mmHg 69%
    23:00 +21°C° 0 mm 2 mps 760 mmHg 71%

    Tomorrow, 21 June, Friday

    Time Temperature Precipitation Wind Pressure Humidity
    00:00 +20°C° 0 mm 2 mps 760 mmHg 73%
    01:00 +19°C° 0 mm 2 mps 760 mmHg 76%
    02:00 +19°C° 0 mm 2 mps 760 mmHg 78%
    03:00 +19°C° 0 mm 2 mps 760 mmHg 81%
    04:00 +19°C° 0 mm 2 mps 761 mmHg 79%
    05:00 +20°C° 0 mm 2 mps 761 mmHg 77%
    06:00 +21°C° 0 mm 2 mps 761 mmHg 75%
    07:00 +23°C° 0 mm 2 mps 761 mmHg 70%
    08:00 +24°C° 0 mm 2 mps 761 mmHg 64%
    09:00 +26°C° 0 mm 2 mps 761 mmHg 58%
    10:00 +27°C° 0 mm 2 mps 761 mmHg 54%
    11:00 +28°C° 0 mm 2 mps 761 mmHg 50%
    12:00 +29°C° 0 mm 3 mps 761 mmHg 45%
    13:00 +29°C° 0 mm 2 mps 761 mmHg 44%
    14:00 +29°C° 0 mm 2 mps 761 mmHg 42%
    15:00 +30°C° 0 mm 2 mps 761 mmHg 41%
    16:00 +30°C° 0 mm 2 mps 761 mmHg 45%
    17:00 +29°C° 0 mm 2 mps 761 mmHg 48%
    18:00 +29°C° 0 mm 2 mps 760 mmHg 52%
    19:00 +27°C° 0 mm 2 mps 761 mmHg 54%
    20:00 +25°C° 0 mm 2 mps 761 mmHg 56%
    21:00 +23°C° 0 mm 2 mps 761 mmHg 59%
    22:00 +23°C° 0 mm 1 mps 761 mmHg 60%
    23:00 +22°C° 0 mm 1 mps 761 mmHg 62%

    Day after tomorrow, 22 June, Saturday

    Time Temperature Precipitation Wind Pressure Humidity
    00:00 +21°C° 0 mm 1 mps 762 mmHg 63%
    01:00 +21°C° 0 mm 1 mps 762 mmHg 64%
    02:00 +21°C° 0 mm 1 mps 762 mmHg 66%
    03:00 +20°C° 0 mm 1 mps 762 mmHg 67%
    04:00 +21°C° 0 mm 1 mps 762 mmHg 66%
    05:00 +22°C° 0 mm 1 mps 762 mmHg 66%
    06:00 +22°C° 0 mm 1 mps 762 mmHg 66%
    07:00 +24°C° 0 mm 1 mps 762 mmHg 61%
    08:00 +25°C° 0 mm 1 mps 762 mmHg 57%
    09:00 +27°C° 0 mm 1 mps 762 mmHg 53%
    10:00 +28°C° 0 mm 1 mps 762 mmHg 49%
    11:00 +29°C° 0 mm 1 mps 762 mmHg 46%
    12:00 +30°C° 0 mm 1 mps 762 mmHg 42%
    13:00 +30°C° 0 mm 1 mps 762 mmHg 43%
    14:00 +30°C° 0 mm 1 mps 762 mmHg 43%
    15:00 +30°C° 0 mm 1 mps 762 mmHg 43%
    16:00 +30°C° 0 mm 1 mps 761 mmHg 45%
    17:00 +29°C° 0 mm 1 mps 761 mmHg 48%
    18:00 +29°C° 0 mm 1 mps 761 mmHg 50%
    19:00 +27°C° 0 mm 1 mps 761 mmHg 53%
    20:00 +26°C° 0 mm 1 mps 761 mmHg 56%
    21:00 +24°C° 0 mm 2 mps 762 mmHg 59%
    22:00 +23°C° 0 mm 1 mps 762 mmHg 61%
    23:00 +23°C° 0 mm 1 mps 762 mmHg 63%

    23 June, Sunday

    Time Temperature Precipitation Wind Pressure Humidity
    00:00 +22°C° 0 mm 1 mps 762 mmHg 64%
    01:00 +22°C° 0 mm 1 mps 762 mmHg 66%
    02:00 +19°C° 0 mm 0 mps 761 mmHg 67%
    03:00 +19°C° 0 mm 0 mps 761 mmHg 68%
    04:00 +20°C° 0 mm 0 mps 762 mmHg 66%
    05:00 +21°C° 0 mm 0 mps 762 mmHg 65%
    06:00 +22°C° 0 mm 0 mps 762 mmHg 63%
    07:00 +23°C° 0 mm 0 mps 762 mmHg 59%
    08:00 +25°C° 0 mm 0 mps 762 mmHg 54%
    09:00 +26°C° 0 mm 0 mps 762 mmHg 50%
    10:00 +29°C° 0 mm 1 mps 762 mmHg 47%
    11:00 +30°C° 0 mm 1 mps 762 mmHg 45%
    12:00 +30°C° 0 mm 1 mps 762 mmHg 42%
    13:00 +30°C° 0 mm 1 mps 761 mmHg 42%
    14:00 +31°C° 0 mm 1 mps 761 mmHg 41%
    15:00 +31°C° 0 mm 2 mps 761 mmHg 41%
    16:00 +31°C° 0 mm 1 mps 761 mmHg 43%
    17:00 +30°C° 0 mm 1 mps 761 mmHg 45%
    18:00 +30°C° 0 mm 1 mps 760 mmHg 47%
    19:00 +28°C° 0 mm 1 mps 760 mmHg 49%
    20:00 +27°C° 0 mm 1 mps 761 mmHg 51%
    21:00 +25°C° 0 mm 1 mps 761 mmHg 52%
    22:00 +24°C° 0 mm 1 mps 761 mmHg 54%
    23:00 +24°C° 0 mm 1 mps 760 mmHg 56%

    24 June, Monday

    Time Temperature Precipitation Wind Pressure Humidity
    00:00 +21°C° 0 mm 0 mps 760 mmHg 58%
    01:00 +23°C° 0 mm 1 mps 760 mmHg 60%
    02:00 +23°C° 0 mm 1 mps 760 mmHg 62%
    03:00 +22°C° 0 mm 1 mps 760 mmHg 64%
    04:00 +23°C° 0 mm 1 mps 760 mmHg 64%
    05:00 +24°C° 0 mm 1 mps 760 mmHg 64%
    06:00 +24°C° 0 mm 1 mps 760 mmHg 64%
    07:00 +26°C° 0 mm 1 mps 760 mmHg 61%
    08:00 +27°C° 0 mm 1 mps 760 mmHg 58%
    09:00 +28°C° 0 mm 1 mps 760 mmHg 54%
    10:00 +29°C° 0 mm 1 mps 760 mmHg 51%
    11:00 +30°C° 0 mm 1 mps 760 mmHg 48%
    12:00 +31°C° 0 mm 1 mps 760 mmHg 45%
    13:00 +31°C° 0 mm 1 mps 760 mmHg 44%
    14:00 +31°C° 0 mm 2 mps 760 mmHg 44%
    15:00 +31°C° 0 mm 2 mps 759 mmHg 43%
    16:00 +31°C° 0 mm 2 mps 759 mmHg 46%
    17:00 +30°C° 0 mm 2 mps 759 mmHg 49%
    18:00 +30°C° 0 mm 1 mps 759 mmHg 52%
    19:00 +29°C° 0 mm 2 mps 759 mmHg 54%
    20:00 +28°C° 0 mm 2 mps 759 mmHg 55%
    21:00 +26°C° 0 mm 2 mps 759 mmHg 57%
    22:00 +26°C° 0 mm 2 mps 759 mmHg 59%
    23:00 +26°C° 0 mm 2 mps 759 mmHg 61%

    25 June, Tuesday

    Time Temperature Precipitation Wind Pressure Humidity
    00:00 +26°C° 0 mm 2 mps 759 mmHg 63%
    01:00 +25°C° 0 mm 2 mps 759 mmHg 66%
    02:00 +25°C° 0 mm 2 mps 759 mmHg 69%
    03:00 +24°C° 0 mm 1 mps 758 mmHg 73%
    04:00 +24°C° 0.1 mm 1 mps 758 mmHg 73%
    05:00 +24°C° 0.1 mm 1 mps 758 mmHg 74%
    06:00 +24°C° 0.1 mm 1 mps 758 mmHg 75%
    07:00 +23°C° 0.2 mm 1 mps 758 mmHg 78%
    08:00 +23°C° 0.2 mm 1 mps 758 mmHg 80%
    09:00 +21°C° 0.2 mm 2 mps 758 mmHg 83%
    10:00 +23°C° 0.1 mm 1 mps 758 mmHg 83%
    11:00 +23°C° 0.1 mm 1 mps 758 mmHg 83%
    12:00 +23°C° 0.1 mm 1 mps 758 mmHg 83%
    13:00 +23°C° 0 mm 1 mps 758 mmHg 83%
    14:00 +23°C° 0 mm 2 mps 758 mmHg 83%
    15:00 +23°C° 0 mm 2 mps 757 mmHg 83%
    16:00 +23°C° 0 mm 2 mps 757 mmHg 85%
    17:00 +21°C° 0 mm 2 mps 756 mmHg 86%
    18:00 +21°C° 0 mm 2 mps 756 mmHg 87%
    19:00 +21°C° 0 mm 2 mps 756 mmHg 89%
    20:00 +20°C° 0 mm 2 mps 756 mmHg 91%
    21:00 +20°C° 0 mm 3 mps 756 mmHg 93%
    22:00 +19°C° 0.2 mm 2 mps 755 mmHg 94%
    23:00 +19°C° 0.2 mm 2 mps 755 mmHg 95%
    Show more